Powrót do katalogu

OPS 4682 DEB

AktywnyPO
NORAD 38417·DEBRIS·🇺🇸 United States

Wystrzelony Apr 3, 1965 z Vandenberg Space Force Base

Loading…

Następne Przeloty (najbliższe 24 godziny)

TLE

ŚwieżeSource: Space-Track

Epoka: Sep 13, 2026, 02:06 UTC

1 38417U 65027DW  26256.08791475  .00000527  00000-0  18074-2 0  9991
2 38417  90.2554  14.2975 0030902 270.1413  89.6166 12.96705041618073

Śledź OPS 4682 DEB w czasie rzeczywistym z AllMySat

Download on the App Store